Flag for Marshall Islands Weather past 2 weeks in Majuro, Marshall Islands

87 °F

Broken clouds.

Feels Like: 101 °F
Forecast: 81 / 85 °F
Wind: No wind

Location: Majuro Atoll

Current Time: Nov 27, 2015 at 5:28:00 PM

Latest Report: Nov 27, 2015 at 3:54 PM

Visibility: 15 mi

Pressure: 29.68 "Hg

Humidity: 78%

Dew point: 79 °F

Location of MajuroLocation

Historic Weather in Majuro — Graph


Majuro temperature yesterday

Maximum temperature yesterday: 87 °F (at 1:54 PM)
Minimum temperature yesterday: 83 °F (at 4:54 AM)
Average temperature yesterday: 85 °F

Past Weeks' High & Low Weather Summary

High89 °F (Nov 27, 11:56 AM)94% (Nov 12, 2:58 PM)29.85 "Hg (Nov 12, 2:58 PM)
Low78 °F (Nov 12, 2:58 PM)72% (Nov 26, 12:53 PM)29.65 "Hg (Nov 20, 2:52 PM)
Average83 °F84%29.75 "Hg
* Reported Nov 12 2:58 PM — Nov 27 2:51 PM, Majuro, Weather by CustomWeather, © 2015

Note: Actual official high and low records may vary slightly from our data, if they occured in-between our weather recording intervals... More about our weather records


Majuro weather history for previous 24 hours

Time TempWeatherWind HumidityBarometerVisibility
2:51 PM
Fri, Nov 27
88 °FMore clouds than sun.8 mph75%29.68 "Hg15 mi
12:50 PM89 °FMore clouds than sun.10 mph73%29.73 "Hg15 mi
11:56 AM89 °FMore clouds than sun.12 mph73%29.75 "Hg15 mi
10:50 AM88 °FMore clouds than sun.12 mph72%29.77 "Hg15 mi
9:50 AM87 °FMore clouds than sun.9 mph74%29.78 "Hg15 mi
8:51 AM86 °FMore clouds than sun.12 mph76%29.78 "Hg15 mi
7:52 AM85 °FMore clouds than sun.13 mph78%29.77 "Hg15 mi
6:52 AM83 °FMostly cloudy.6 mph81%29.75 "Hg15 mi
5:54 AM83 °FMostly cloudy.6 mph82%29.73 "Hg15 mi
4:52 AM83 °FPassing clouds.8 mph81%29.72 "Hg15 mi
3:54 AM83 °FPassing clouds.8 mph82%29.72 "Hg15 mi
2:54 AM83 °FPartly cloudy.12 mph80%29.73 "Hg15 mi
1:52 AM83 °FPartly cloudy.13 mph81%29.75 "Hg15 mi
12:56 AM84 °FPartly cloudy.9 mph82%29.77 "Hg15 mi
11:50 PM
Thu, Nov 26
83 °FPartly cloudy.10 mph80%29.78 "Hg15 mi
10:54 PM84 °FMostly cloudy.10 mph80%29.80 "Hg15 mi
9:54 PM83 °FMostly cloudy.12 mph77%29.80 "Hg15 mi
8:54 PM84 °FPartly cloudy.10 mph80%29.78 "Hg15 mi
7:52 PM84 °FPartly cloudy.10 mph79%29.77 "Hg15 mi
6:50 PM84 °FBroken clouds.16 mph80%29.74 "Hg15 mi
5:53 PM84 °FMore clouds than sun.13 mph79%29.72 "Hg15 mi
Weather by CustomWeather, © 2015

See weather overviewHow to use our weather pages